Retour au catalogue

DELTA 1 DEB

ActifSSO
NORAD 42091·DEBRIS·🇺🇸 United States

Lancé Dec 15, 1968 depuis Vandenberg Space Force Base

Loading…

Prochains Passages (prochaines 24 heures)

TLE

FraisSource: Space-Track

Époque: Sep 12, 2026, 16:26 UTC

1 42091U 68114T   26255.68537233  .00000013  00000-0  37779-3 0  9993
2 42091 101.4960 228.4240 0036357 131.4785  41.5809 12.47227537583029

Suivez DELTA 1 DEB en temps réel avec AllMySat

Download on the App Store